| time (UTC) | temp F | wind direction | speed MPH | gust MPH | rain 1hr in | rain 24hr in | rain mn in | humidity % | barometer mb |
| 20260906072404 | 69 | 52 | 5.0 | 7.0 | 0.01 | 0.15 | 0.02 | 89 | 1014.7 |
| 20260906071904 | 69 | 57 | 4.0 | 12.0 | 0.01 | 0.15 | 0.02 | 90 | 1014.6 |
| 20260906070905 | 69 | 53 | 6.0 | 10.0 | 0.00 | 0.14 | 0.01 | 90 | 1014.6 |
| 20260906070401 | 69 | 44 | 5.0 | 9.0 | 0.00 | 0.14 | 0.01 | 90 | 1014.6 |
| 20260906065401 | 69 | 42 | 6.0 | 9.0 | 0.00 | 0.14 | 0.01 | 91 | 1014.8 |
| 20260906064901 | 69 | 42 | 5.0 | 6.0 | 0.00 | 0.14 | 0.01 | 92 | 1014.8 |
| 20260906064401 | 69 | 54 | 5.0 | 6.0 | 0.00 | 0.14 | 0.01 | 92 | 1014.8 |
| 20260906062901 | 69 | 50 | 4.0 | 6.0 | 0.00 | 0.14 | 0.01 | 93 | 1014.9 |
| 20260906061901 | 69 | 34 | 6.0 | 9.0 | 0.00 | 0.14 | 0.01 | 93 | 1014.8 |
| 20260906061401 | 69 | 40 | 5.0 | 9.0 | 0.00 | 0.14 | 0.01 | 93 | 1014.8 |
| 20260906060901 | 69 | 36 | 6.0 | 9.0 | 0.00 | 0.14 | 0.01 | 93 | 1014.7 |
| 20260906060401 | 69 | 24 | 5.0 | 10.0 | 0.00 | 0.14 | 0.01 | 93 | 1014.7 |
| 20260906055901 | 69 | 35 | 5.0 | 6.0 | 0.00 | 0.14 | 0.01 | 93 | 1014.6 |
| 20260906055401 | 69 | 27 | 5.0 | 9.0 | 0.00 | 0.14 | 0.01 | 93 | 1014.6 |
| 20260906054901 | 69 | 38 | 5.0 | 12.0 | 0.00 | 0.14 | 0.01 | 93 | 1014.6 |
| 20260906053901 | 69 | 47 | 6.0 | 9.0 | 0.01 | 0.14 | 0.01 | 93 | 1014.5 |
| 20260906053401 | 69 | 36 | 4.0 | 6.0 | 0.01 | 0.14 | 0.01 | 93 | 1014.4 |
| 20260906052401 | 69 | 81 | 4.0 | 7.0 | 0.01 | 0.14 | 0.01 | 93 | 1014.4 |
| 20260906051401 | 69 | 84 | 4.0 | 8.0 | 0.01 | 0.14 | 0.01 | 93 | 1014.3 |
| 20260906050901 | 69 | 80 | 3.0 | 7.0 | 0.01 | 0.14 | 0.01 | 93 | 1014.3 |
| 20260906050401 | 69 | 80 | 3.0 | 5.0 | 0.01 | 0.14 | 0.01 | 94 | 1014.3 |
| 20260906045901 | 69 | 63 | 3.0 | 6.0 | 0.01 | 0.14 | 0.01 | 94 | 1014.2 |
| 20260906045401 | 69 | 61 | 3.0 | 9.0 | 0.01 | 0.14 | 0.01 | 94 | 1014.1 |
| 20260906044901 | 69 | 50 | 5.0 | 10.0 | 0.01 | 0.14 | 0.01 | 94 | 1014.2 |
| 20260906044401 | 69 | 62 | 6.0 | 10.0 | 0.01 | 0.14 | 0.01 | 94 | 1014.1 |
| 20260906043901 | 70 | 55 | 6.0 | 10.0 | 0.01 | 0.13 | 0.00 | 94 | 1014.0 |
| 20260906043401 | 70 | 51 | 6.0 | 10.0 | 0.01 | 0.13 | 0.00 | 94 | 1014.0 |
| 20260906042901 | 70 | 54 | 6.0 | 9.0 | 0.01 | 0.13 | 0.00 | 94 | 1014.0 |
| 20260906042402 | 70 | 57 | 3.0 | 8.0 | 0.01 | 0.13 | 0.00 | 94 | 1014.0 |
| 20260906041901 | 70 | 51 | 5.0 | 7.0 | 0.01 | 0.13 | 0.00 | 94 | 1014.0 |
| 20260906041401 | 70 | 41 | 3.0 | 6.0 | 0.01 | 0.13 | 0.00 | 94 | 1014.1 |
| 20260906040901 | 70 | 36 | 3.0 | 5.0 | 0.01 | 0.13 | 0.00 | 94 | 1014.1 |
| 20260906040401 | 70 | 45 | 3.0 | 6.0 | 0.01 | 0.13 | 0.00 | 94 | 1014.1 |
| 20260906035901 | 70 | 60 | 3.0 | 7.0 | 0.01 | 0.13 | 0.13 | 94 | 1014.1 |
| 20260906034901 | 70 | 51 | 3.0 | 6.0 | 0.01 | 0.13 | 0.13 | 94 | 1014.1 |
| 20260906034401 | 70 | 27 | 5.0 | 6.0 | 0.01 | 0.13 | 0.13 | 94 | 1014.2 |
| 20260906033901 | 70 | 33 | 3.0 | 6.0 | 0.00 | 0.12 | 0.12 | 94 | 1014.2 |
| 20260906033402 | 70 | 49 | 5.0 | 10.0 | 0.00 | 0.12 | 0.12 | 94 | 1014.1 |
| 20260906032901 | 71 | 47 | 4.0 | 7.0 | 0.00 | 0.12 | 0.12 | 94 | 1014.1 |
| 20260906031901 | 71 | 49 | 5.0 | 12.0 | 0.00 | 0.12 | 0.12 | 94 | 1013.9 |
| 20260906031401 | 71 | 53 | 5.0 | 7.0 | 0.00 | 0.12 | 0.12 | 95 | 1014.0 |
| 20260906030901 | 71 | 52 | 3.0 | 8.0 | 0.01 | 0.12 | 0.12 | 95 | 1013.9 |
| 20260906030402 | 71 | 41 | 5.0 | 10.0 | 0.01 | 0.12 | 0.12 | 95 | 1013.9 |
| 20260906025402 | 72 | 46 | 4.0 | 12.0 | 0.01 | 0.12 | 0.12 | 95 | 1013.7 |
| 20260906024901 | 72 | 68 | 5.0 | 9.0 | 0.01 | 0.12 | 0.12 | 95 | 1013.7 |
| 20260906024402 | 72 | 65 | 5.0 | 9.0 | 0.01 | 0.12 | 0.12 | 95 | 1013.6 |
| 20260906023902 | 72 | 58 | 5.0 | 8.0 | 0.01 | 0.12 | 0.12 | 95 | 1013.5 |
| 20260906023402 | 72 | 76 | 5.0 | 10.0 | 0.01 | 0.12 | 0.12 | 95 | 1013.4 |
| 20260906022901 | 72 | 62 | 6.0 | 12.0 | 0.01 | 0.12 | 0.12 | 95 | 1013.4 |
| 20260906022402 | 73 | 40 | 8.0 | 12.0 | 0.01 | 0.12 | 0.12 | 95 | 1013.4 |
| 20260906021901 | 73 | 49 | 6.0 | 12.0 | 0.01 | 0.12 | 0.12 | 95 | 1013.4 |
| 20260906020401 | 73 | 60 | 9.0 | 13.0 | 0.01 | 0.11 | 0.11 | 95 | 1013.3 |
| 20260906014401 | 73 | 56 | 7.0 | 13.0 | 0.01 | 0.11 | 0.11 | 95 | 1012.9 |
| 20260906013402 | 73 | 50 | 11.0 | 16.0 | 0.02 | 0.11 | 0.11 | 95 | 1012.6 |
| 20260906012401 | 74 | 53 | 11.0 | 18.0 | 0.02 | 0.11 | 0.11 | 95 | 1012.7 |
| 20260906011902 | 74 | 48 | 8.0 | 14.0 | 0.02 | 0.11 | 0.11 | 95 | 1012.6 |
| 20260906011402 | 74 | 59 | 7.0 | 12.0 | 0.03 | 0.11 | 0.11 | 95 | 1012.5 |
| 20260906010901 | 74 | 45 | 9.0 | 15.0 | 0.02 | 0.10 | 0.10 | 95 | 1012.4 |
| 20260906005902 | 75 | 44 | 6.0 | 12.0 | 0.03 | 0.10 | 0.10 | 95 | 1012.3 |
| 20260906004901 | 75 | 67 | 5.0 | 9.0 | 0.04 | 0.10 | 0.10 | 95 | 1012.1 |
| 20260906004401 | 75 | 71 | 4.0 | 7.0 | 0.05 | 0.10 | 0.10 | 95 | 1012.1 |
| 20260906003902 | 75 | 70 | 4.0 | 8.0 | 0.05 | 0.10 | 0.10 | 95 | 1012.1 |
| 20260906003402 | 76 | 72 | 4.0 | 7.0 | 0.05 | 0.09 | 0.09 | 95 | 1012.1 |
| 20260906002902 | 76 | 53 | 3.0 | 7.0 | 0.06 | 0.09 | 0.09 | 95 | 1012.1 |
| 20260906002402 | 76 | 62 | 5.0 | 8.0 | 0.07 | 0.09 | 0.09 | 95 | 1011.9 |
| 20260906001902 | 76 | 50 | 4.0 | 10.0 | 0.08 | 0.09 | 0.09 | 95 | 1011.8 |
| 20260906000902 | 76 | 48 | 9.0 | 13.0 | 0.07 | 0.08 | 0.08 | 95 | 1011.6 |
| 20260906000403 | 76 | 50 | 7.0 | 12.0 | 0.07 | 0.08 | 0.08 | 95 | 1011.6 |
| 20260905235902 | 76 | 57 | 5.0 | 9.0 | 0.06 | 0.07 | 0.07 | 95 | 1011.6 |
| 20260905235402 | 76 | 65 | 4.0 | 10.0 | 0.05 | 0.06 | 0.06 | 95 | 1011.6 |
| 20260905234902 | 76 | 42 | 4.0 | 7.0 | 0.05 | 0.06 | 0.06 | 94 | 1011.6 |
| 20260905234402 | 76 | 59 | 3.0 | 6.0 | 0.04 | 0.05 | 0.05 | 93 | 1011.6 |
| 20260905233902 | 76 | 57 | 4.0 | 9.0 | 0.04 | 0.05 | 0.05 | 92 | 1011.7 |
| 20260905233402 | 77 | 61 | 3.0 | 7.0 | 0.03 | 0.04 | 0.04 | 90 | 1011.6 |
| 20260905232902 | 78 | 54 | 7.0 | 16.0 | 0.02 | 0.03 | 0.03 | 87 | 1011.7 |
| 20260905232402 | 80 | 22 | 10.0 | 18.0 | 0.01 | 0.02 | 0.02 | 84 | 1011.7 |
| 20260905231902 | 82 | 31 | 9.0 | 12.0 | 0.00 | 0.01 | 0.01 | 85 | 1011.3 |
| 20260905231402 | 82 | 61 | 3.0 | 6.0 | 0.00 | 0.01 | 0.01 | 84 | 1010.8 |
| 20260905230402 | 83 | 54 | 6.0 | 8.0 | 0.00 | 0.01 | 0.01 | 82 | 1010.8 |
| 20260905225902 | 84 | 62 | 3.0 | 6.0 | 0.00 | 0.01 | 0.01 | 83 | 1010.8 |
| 20260905225402 | 84 | 90 | 2.0 | 3.0 | 0.00 | 0.01 | 0.01 | 83 | 1010.8 |
| 20260905224902 | 84 | 63 | 2.0 | 3.0 | 0.00 | 0.01 | 0.01 | 83 | 1010.9 |
| 20260905224402 | 84 | 59 | 0.0 | 3.0 | 0.00 | 0.01 | 0.01 | 84 | 1010.9 |
| 20260905222902 | 84 | 57 | 3.0 | 6.0 | 0.00 | 0.01 | 0.01 | 83 | 1010.8 |
| 20260905222402 | 84 | 53 | 4.0 | 8.0 | 0.00 | 0.01 | 0.01 | 81 | 1010.9 |
| 20260905221902 | 85 | 82 | 3.0 | 10.0 | 0.00 | 0.01 | 0.01 | 81 | 1010.9 |
| 20260905221402 | 85 | 43 | 4.0 | 7.0 | 0.00 | 0.01 | 0.01 | 81 | 1010.8 |
| 20260905220402 | 84 | 24 | 4.0 | 8.0 | 0.00 | 0.01 | 0.01 | 80 | 1010.7 |
| 20260905215902 | 84 | 59 | 5.0 | 12.0 | 0.00 | 0.01 | 0.01 | 80 | 1010.6 |
| 20260905215402 | 84 | 32 | 6.0 | 10.0 | 0.00 | 0.01 | 0.01 | 80 | 1010.5 |
| 20260905214902 | 85 | 42 | 3.0 | 9.0 | 0.00 | 0.01 | 0.01 | 81 | 1010.5 |
| 20260905214402 | 84 | 19 | 4.0 | 9.0 | 0.00 | 0.01 | 0.01 | 82 | 1010.4 |
| 20260905213902 | 84 | 31 | 4.0 | 6.0 | 0.00 | 0.01 | 0.01 | 82 | 1010.5 |
| 20260905213402 | 84 | 34 | 6.0 | 12.0 | 0.00 | 0.01 | 0.01 | 81 | 1010.5 |
| 20260905212902 | 85 | 46 | 6.0 | 10.0 | 0.00 | 0.01 | 0.01 | 80 | 1010.5 |
| 20260905212402 | 85 | 56 | 5.0 | 12.0 | 0.00 | 0.01 | 0.01 | 81 | 1010.5 |
| 20260905211902 | 85 | 44 | 4.0 | 7.0 | 0.00 | 0.01 | 0.01 | 81 | 1010.5 |
| 20260905211402 | 85 | 28 | 3.0 | 8.0 | 0.00 | 0.01 | 0.01 | 80 | 1010.5 |
| 20260905210402 | 85 | 35 | 7.0 | 12.0 | 0.00 | 0.01 | 0.01 | 80 | 1010.4 |
| 20260905205902 | 86 | 21 | 6.0 | 10.0 | 0.00 | 0.01 | 0.01 | 79 | 1010.5 |
| 20260905205402 | 86 | 357 | 4.0 | 9.0 | 0.00 | 0.01 | 0.01 | 79 | 1010.6 |
| 20260905204402 | 86 | 9 | 5.0 | 8.0 | 0.00 | 0.01 | 0.01 | 78 | 1010.6 |
| 20260905203902 | 86 | 341 | 4.0 | 8.0 | 0.00 | 0.01 | 0.01 | 78 | 1010.6 |
| 20260905203402 | 86 | 14 | 4.0 | 8.0 | 0.00 | 0.01 | 0.01 | 79 | 1010.7 |
| 20260905202902 | 86 | 19 | 5.0 | 9.0 | 0.00 | 0.01 | 0.01 | 79 | 1010.7 |
| 20260905202403 | 86 | 348 | 5.0 | 10.0 | 0.00 | 0.01 | 0.01 | 78 | 1010.8 |
| 20260905201902 | 86 | 21 | 7.0 | 10.0 | 0.00 | 0.01 | 0.01 | 78 | 1010.8 |
| 20260905201402 | 87 | 26 | 5.0 | 10.0 | 0.00 | 0.01 | 0.01 | 78 | 1011.0 |
| 20260905200902 | 87 | 35 | 5.0 | 9.0 | 0.00 | 0.01 | 0.01 | 77 | 1011.0 |
| 20260905195902 | 87 | 3 | 5.0 | 8.0 | 0.00 | 0.01 | 0.01 | 77 | 1011.0 |
| 20260905195402 | 87 | 300 | 2.0 | 7.0 | 0.00 | 0.01 | 0.01 | 76 | 1011.1 |
| 20260905194902 | 87 | 344 | 3.0 | 7.0 | 0.00 | 0.01 | 0.01 | 77 | 1011.1 |
| 20260905194402 | 87 | 27 | 3.0 | 6.0 | 0.00 | 0.02 | 0.01 | 77 | 1011.1 |
| 20260905193902 | 87 | 0 | 2.0 | 5.0 | 0.00 | 0.02 | 0.01 | 79 | 1011.2 |
| 20260905192902 | 86 | 344 | 1.0 | 5.0 | 0.00 | 0.04 | 0.01 | 78 | 1011.2 |
| 20260905192403 | 86 | 13 | 2.0 | 7.0 | 0.00 | 0.05 | 0.01 | 79 | 1011.2 |
| 20260905191902 | 86 | 299 | 3.0 | 9.0 | 0.00 | 0.06 | 0.01 | 78 | 1011.4 |
| 20260905191403 | 86 | 354 | 2.0 | 5.0 | 0.00 | 0.07 | 0.01 | 77 | 1011.5 |
| 20260905190903 | 86 | 314 | 1.0 | 3.0 | 0.00 | 0.07 | 0.01 | 76 | 1011.6 |
| 20260905190402 | 87 | 294 | 6.0 | 12.0 | 0.00 | 0.08 | 0.01 | 75 | 1011.6 |
| 20260905185902 | 87 | 301 | 4.0 | 10.0 | 0.00 | 0.09 | 0.01 | 76 | 1011.5 |
| 20260905185402 | 87 | 279 | 5.0 | 8.0 | 0.00 | 0.10 | 0.01 | 77 | 1011.6 |
| 20260905184902 | 87 | 299 | 3.0 | 7.0 | 0.00 | 0.12 | 0.01 | 76 | 1011.7 |
| 20260905183903 | 86 | 260 | 4.0 | 7.0 | 0.00 | 0.15 | 0.01 | 78 | 1011.6 |
| 20260905182403 | 86 | 267 | 5.0 | 8.0 | 0.01 | 0.15 | 0.01 | 77 | 1011.8 |
| 20260905181902 | 85 | 258 | 5.0 | 10.0 | 0.01 | 0.15 | 0.01 | 78 | 1011.8 |
| 20260905181402 | 85 | 270 | 3.0 | 8.0 | 0.01 | 0.15 | 0.01 | 78 | 1011.8 |
| 20260905180903 | 85 | 277 | 3.0 | 7.0 | 0.01 | 0.15 | 0.01 | 81 | 1011.8 |
| 20260905180403 | 85 | 249 | 3.0 | 6.0 | 0.01 | 0.15 | 0.01 | 82 | 1011.9 |
| 20260905175903 | 84 | 209 | 3.0 | 7.0 | 0.01 | 0.15 | 0.01 | 83 | 1011.9 |
| 20260905175402 | 84 | 203 | 3.0 | 6.0 | 0.01 | 0.15 | 0.01 | 84 | 1012.0 |
| 20260905174402 | 82 | 238 | 1.0 | 5.0 | 0.01 | 0.15 | 0.01 | 85 | 1012.1 |
| 20260905173403 | 81 | 229 | 0.0 | 1.0 | 0.01 | 0.15 | 0.01 | 86 | 1012.2 |
| 20260905172903 | 80 | 229 | 0.0 | 0.0 | 0.01 | 0.15 | 0.01 | 83 | 1012.3 |
| 20260905172403 | 80 | 229 | 0.0 | 0.0 | 0.00 | 0.14 | 0.00 | 86 | 1012.5 |
| 20260905171903 | 80 | 229 | 0.0 | 2.0 | 0.00 | 0.14 | 0.00 | 83 | 1012.7 |
| 20260905170903 | 81 | 229 | 2.0 | 3.0 | 0.00 | 0.14 | 0.00 | 80 | 1012.8 |
| 20260905170403 | 82 | 259 | 2.0 | 5.0 | 0.00 | 0.14 | 0.00 | 80 | 1012.8 |
| 20260905165902 | 82 | 234 | 1.0 | 5.0 | 0.00 | 0.14 | 0.00 | 81 | 1012.7 |
| 20260905165403 | 82 | 213 | 3.0 | 8.0 | 0.00 | 0.14 | 0.00 | 85 | 1012.7 |
| 20260905164903 | 82 | 200 | 5.0 | 9.0 | 0.00 | 0.14 | 0.00 | 84 | 1012.6 |
| 20260905164402 | 82 | 203 | 3.0 | 8.0 | 0.00 | 0.14 | 0.00 | 85 | 1012.7 |
| 20260905163902 | 81 | 177 | 3.0 | 8.0 | 0.00 | 0.14 | 0.00 | 85 | 1012.8 |
| 20260905162903 | 80 | 205 | 4.0 | 9.0 | 0.00 | 0.14 | 0.00 | 86 | 1012.9 |
| 20260905162402 | 79 | 188 | 5.0 | 9.0 | 0.00 | 0.14 | 0.00 | 84 | 1013.1 |
| 20260905161903 | 80 | 191 | 4.0 | 9.0 | 0.00 | 0.14 | 0.00 | 83 | 1013.2 |
| 20260905161403 | 80 | 186 | 4.0 | 9.0 | 0.00 | 0.14 | 0.00 | 83 | 1013.2 |
| 20260905160902 | 79 | 192 | 4.0 | 8.0 | 0.00 | 0.14 | 0.00 | 85 | 1013.1 |
| 20260905160403 | 79 | 175 | 3.0 | 8.0 | 0.00 | 0.14 | 0.00 | 85 | 1013.1 |
| 20260905155903 | 79 | 218 | 3.0 | 8.0 | 0.00 | 0.14 | 0.00 | 84 | 1013.1 |
| 20260905155403 | 79 | 197 | 2.0 | 5.0 | 0.00 | 0.14 | 0.00 | 86 | 1013.1 |
| 20260905154902 | 78 | 212 | 3.0 | 7.0 | 0.00 | 0.14 | 0.00 | 87 | 1013.1 |
| 20260905154402 | 78 | 187 | 3.0 | 6.0 | 0.00 | 0.14 | 0.00 | 87 | 1013.1 |
| 20260905152903 | 77 | 201 | 3.0 | 7.0 | 0.00 | 0.14 | 0.00 | 88 | 1012.9 |
| 20260905152403 | 77 | 188 | 5.0 | 8.0 | 0.00 | 0.14 | 0.00 | 88 | 1012.9 |
| 20260905151403 | 77 | 221 | 4.0 | 8.0 | 0.00 | 0.14 | 0.00 | 87 | 1013.0 |
| 20260905150903 | 77 | 188 | 3.0 | 7.0 | 0.00 | 0.14 | 0.00 | 87 | 1013.1 |
| 20260905150403 | 77 | 236 | 4.0 | 9.0 | 0.00 | 0.14 | 0.00 | 86 | 1013.3 |
| 20260905145403 | 76 | 203 | 4.0 | 7.0 | 0.00 | 0.14 | 0.00 | 90 | 1012.9 |
| 20260905144902 | 75 | 155 | 2.0 | 6.0 | 0.00 | 0.14 | 0.00 | 90 | 1013.0 |
| 20260905144403 | 75 | 163 | 2.0 | 6.0 | 0.00 | 0.14 | 0.00 | 90 | 1013.0 |
| 20260905143902 | 74 | 174 | 2.0 | 5.0 | 0.00 | 0.14 | 0.00 | 90 | 1013.1 |
| 20260905143402 | 74 | 195 | 2.0 | 5.0 | 0.00 | 0.14 | 0.00 | 90 | 1013.1 |
| 20260905141903 | 74 | 169 | 1.0 | 5.0 | 0.00 | 0.14 | 0.00 | 88 | 1013.1 |
| 20260905141402 | 74 | 149 | 3.0 | 7.0 | 0.00 | 0.14 | 0.00 | 89 | 1013.0 |
| 20260905140903 | 74 | 174 | 4.0 | 13.0 | 0.00 | 0.14 | 0.00 | 89 | 1012.6 |
| 20260905140403 | 74 | 197 | 5.0 | 8.0 | 0.00 | 0.14 | 0.00 | 89 | 1012.4 |
| 20260905135403 | 74 | 189 | 5.0 | 7.0 | 0.00 | 0.14 | 0.00 | 91 | 1012.4 |
| 20260905134903 | 73 | 208 | 3.0 | 12.0 | 0.00 | 0.14 | 0.00 | 90 | 1012.4 |
| 20260905134403 | 73 | 197 | 5.0 | 10.0 | 0.00 | 0.14 | 0.00 | 91 | 1012.2 |
| 20260905133402 | 73 | 211 | 4.0 | 10.0 | 0.00 | 0.14 | 0.00 | 92 | 1012.4 |
| 20260905132903 | 73 | 173 | 6.0 | 12.0 | 0.00 | 0.14 | 0.00 | 92 | 1012.3 |
| 20260905132403 | 72 | 184 | 5.0 | 12.0 | 0.00 | 0.14 | 0.00 | 93 | 1012.2 |
| 20260905131904 | 72 | 181 | 6.0 | 12.0 | 0.00 | 0.14 | 0.00 | 92 | 1012.2 |
| 20260905131403 | 72 | 189 | 5.0 | 10.0 | 0.00 | 0.14 | 0.00 | 92 | 1012.2 |
| 20260905130903 | 72 | 173 | 6.0 | 14.0 | 0.00 | 0.14 | 0.00 | 93 | 1012.3 |
| 20260905130403 | 72 | 178 | 5.0 | 9.0 | 0.00 | 0.14 | 0.00 | 93 | 1012.3 |
| 20260905125902 | 72 | 170 | 5.0 | 8.0 | 0.00 | 0.14 | 0.00 | 94 | 1012.4 |
| 20260905124903 | 71 | 183 | 4.0 | 12.0 | 0.00 | 0.14 | 0.00 | 96 | 1012.4 |
| 20260905123903 | 70 | 188 | 4.0 | 12.0 | 0.00 | 0.14 | 0.00 | 95 | 1012.4 |
| 20260905123404 | 70 | 183 | 3.0 | 10.0 | 0.00 | 0.14 | 0.00 | 95 | 1012.4 |
| 20260905122904 | 70 | 177 | 5.0 | 9.0 | 0.00 | 0.14 | 0.00 | 96 | 1012.4 |
| 20260905122403 | 70 | 177 | 5.0 | 8.0 | 0.00 | 0.14 | 0.00 | 96 | 1012.4 |
| 20260905121902 | 70 | 195 | 4.0 | 7.0 | 0.00 | 0.14 | 0.00 | 96 | 1012.4 |
| 20260905121403 | 70 | 174 | 3.0 | 10.0 | 0.00 | 0.14 | 0.00 | 96 | 1012.4 |
| 20260905120903 | 69 | 195 | 3.0 | 6.0 | 0.00 | 0.14 | 0.00 | 96 | 1012.5 |
| 20260905120403 | 69 | 185 | 4.0 | 8.0 | 0.00 | 0.14 | 0.00 | 96 | 1012.3 |
| 20260905115903 | 69 | 203 | 3.0 | 5.0 | 0.00 | 0.14 | 0.00 | 96 | 1012.4 |
| 20260905114903 | 69 | 156 | 1.0 | 6.0 | 0.00 | 0.14 | 0.00 | 95 | 1012.6 |
| 20260905114403 | 69 | 157 | 3.0 | 7.0 | 0.00 | 0.14 | 0.00 | 95 | 1012.6 |
| 20260905113903 | 69 | 160 | 4.0 | 7.0 | 0.00 | 0.14 | 0.00 | 95 | 1012.5 |
| 20260905113403 | 69 | 164 | 2.0 | 6.0 | 0.00 | 0.14 | 0.00 | 95 | 1012.5 |
| 20260905112903 | 69 | 162 | 2.0 | 8.0 | 0.00 | 0.14 | 0.00 | 95 | 1012.5 |
| 20260905112404 | 69 | 160 | 1.0 | 5.0 | 0.00 | 0.14 | 0.00 | 95 | 1012.5 |
| 20260905111903 | 69 | 163 | 3.0 | 8.0 | 0.00 | 0.14 | 0.00 | 95 | 1012.5 |
| 20260905111403 | 69 | 176 | 2.0 | 7.0 | 0.00 | 0.14 | 0.00 | 95 | 1012.4 |
| 20260905110903 | 69 | 157 | 3.0 | 8.0 | 0.00 | 0.14 | 0.00 | 95 | 1012.4 |
| 20260905110403 | 69 | 135 | 3.0 | 8.0 | 0.00 | 0.14 | 0.00 | 94 | 1012.4 |
| 20260905105903 | 70 | 165 | 3.0 | 9.0 | 0.00 | 0.14 | 0.00 | 94 | 1012.2 |
| 20260905105404 | 70 | 177 | 2.0 | 6.0 | 0.00 | 0.14 | 0.00 | 94 | 1012.3 |
| 20260905104903 | 70 | 128 | 2.0 | 5.0 | 0.00 | 0.14 | 0.00 | 94 | 1012.3 |
| 20260905104404 | 70 | 141 | 2.0 | 5.0 | 0.00 | 0.14 | 0.00 | 93 | 1012.3 |
| 20260905103903 | 70 | 137 | 3.0 | 7.0 | 0.00 | 0.14 | 0.00 | 93 | 1012.3 |
| 20260905103404 | 70 | 106 | 4.0 | 9.0 | 0.00 | 0.14 | 0.00 | 93 | 1012.4 |
| 20260905102904 | 70 | 118 | 3.0 | 8.0 | 0.00 | 0.14 | 0.00 | 93 | 1012.3 |
| 20260905102404 | 70 | 119 | 4.0 | 8.0 | 0.00 | 0.14 | 0.00 | 93 | 1012.4 |
| 20260905101904 | 70 | 144 | 4.0 | 9.0 | 0.00 | 0.14 | 0.00 | 93 | 1012.4 |
| 20260905100903 | 70 | 101 | 3.0 | 9.0 | 0.00 | 0.14 | 0.00 | 92 | 1012.6 |
| 20260905100404 | 70 | 139 | 3.0 | 7.0 | 0.00 | 0.14 | 0.00 | 92 | 1012.6 |
| 20260905095903 | 70 | 91 | 5.0 | 9.0 | 0.00 | 0.14 | 0.00 | 92 | 1012.7 |
| 20260905095403 | 70 | 97 | 3.0 | 10.0 | 0.00 | 0.14 | 0.00 | 92 | 1012.6 |
| 20260905094903 | 70 | 112 | 3.0 | 7.0 | 0.00 | 0.14 | 0.00 | 92 | 1012.7 |
| 20260905094403 | 71 | 105 | 3.0 | 8.0 | 0.00 | 0.14 | 0.00 | 92 | 1012.6 |
| 20260905093903 | 71 | 103 | 3.0 | 9.0 | 0.00 | 0.14 | 0.00 | 93 | 1012.7 |
| 20260905093403 | 71 | 79 | 3.0 | 10.0 | 0.00 | 0.14 | 0.00 | 93 | 1012.7 |
| 20260905092404 | 71 | 64 | 7.0 | 12.0 | 0.00 | 0.14 | 0.00 | 94 | 1012.7 |
| 20260905091904 | 73 | 61 | 7.0 | 16.0 | 0.00 | 0.14 | 0.00 | 95 | 1012.4 |
| 20260905091404 | 74 | 125 | 3.0 | 10.0 | 0.00 | 0.14 | 0.00 | 96 | 1012.1 |
| 20260905090904 | 74 | 64 | 8.0 | 12.0 | 0.00 | 0.14 | 0.00 | 97 | 1012.3 |
| 20260905090404 | 74 | 91 | 4.0 | 12.0 | 0.00 | 0.14 | 0.00 | 98 | 1012.0 |
| 20260905085903 | 74 | 59 | 6.0 | 17.0 | 0.00 | 0.14 | 0.00 | 98 | 1012.1 |
| 20260905085404 | 74 | 52 | 5.0 | 9.0 | 0.00 | 0.14 | 0.00 | 98 | 1011.8 |
| 20260905084403 | 73 | 32 | 0.0 | 0.0 | 0.00 | 0.14 | 0.00 | 97 | 1011.2 |
| 20260905083904 | 73 | 32 | 0.0 | 0.0 | 0.00 | 0.14 | 0.00 | 97 | 1011.3 |
| 20260905083403 | 74 | 32 | 0.0 | 0.0 | 0.00 | 0.14 | 0.00 | 97 | 1011.3 |
| 20260905082903 | 74 | 32 | 0.0 | 0.0 | 0.00 | 0.14 | 0.00 | 97 | 1011.3 |
| 20260905082403 | 74 | 32 | 0.0 | 0.0 | 0.00 | 0.14 | 0.00 | 97 | 1011.3 |
| 20260905081403 | 74 | 32 | 0.0 | 0.0 | 0.00 | 0.15 | 0.00 | 97 | 1011.3 |
| 20260905080905 | 74 | 32 | 0.0 | 0.0 | 0.00 | 0.15 | 0.00 | 97 | 1011.3 |
| 20260905080403 | 75 | 32 | 0.0 | 0.0 | 0.00 | 0.15 | 0.00 | 97 | 1011.2 |
| 20260905075403 | 75 | 31 | 0.0 | 0.0 | 0.00 | 0.15 | 0.00 | 98 | 1011.2 |
| 20260905074904 | 75 | 32 | 0.0 | 0.0 | 0.00 | 0.15 | 0.00 | 98 | 1011.3 |
| 20260905074404 | 75 | 32 | 0.0 | 1.0 | 0.00 | 0.15 | 0.00 | 98 | 1011.2 |
| 20260905073904 | 74 | 32 | 0.0 | 0.0 | 0.00 | 0.15 | 0.00 | 98 | 1011.2 |
| 20260905073404 | 74 | 32 | 0.0 | 0.0 | 0.00 | 0.15 | 0.00 | 98 | 1011.1 |